Regional Weather Roundup
Issued by NWS Burlington, VT

Home | Current Version | Previous Version | Text Only | Print | Product List | Glossary On
Versions: 1 2 3 4 5 6 7 8 9 10 11 12 13 14 15 16 17 18 19 20 21 22 23 24 25 26 27 28 29 30 31 32 33 34 35 36 37 38 39 40 41 42 43 44 45 46 47 48 49 50
000
ASUS41 KBTV 200410
RWRBTV
VERMONT REGIONAL WEATHER ROUNDUP
NATIONAL WEATHER SERVICE BURLINGTON VT
1200 AM EDT SAT SEP 20 2014

NOTE: "FAIR" INDICATES FEW OR NO CLOUDS BELOW 12,000 FEET WITH NO
SIGNIFICANT WEATHER AND/OR OBSTRUCTIONS TO VISIBILITY.

* THESE REPORTS ARE NOT UNDER NWS QUALITY CONTROL AND/OR DO NOT
  REPORT WEATHER SUCH AS PRECIPITATION AND FOG.

VTZ001>019-200500-
_____VERMONT_____


CITY           SKY/WX    TMP DP  RH WIND       PRES   REMARKS
BURLINGTON     PTCLDY    48  36  63 S6        30.27R
MONTPELIER     CLEAR     43  35  73 S6        30.33S
MORRISVILLE    CLEAR     34  31  88 CALM      30.30R
ST. JOHNSBURY*   N/A     42  34  73 MISG      30.30F
MIDDLEBURY*    FAIR      51  38  60 S9        30.27F
RUTLAND*       CLEAR     46  36  66 SE12      30.30F
SPRINGFIELD    CLEAR     36  35  96 CALM      30.36F
HIGHGATE*      FAIR      49  35  57 S7        30.23S
NEWPORT*       FAIR      39  33  78 S5        30.28S
BENNINGTON     CLEAR     46  36  68 VRB5      30.31F
SUTTON*          N/A     39 N/A N/A MISG        N/A

_____LAKE CHAMPLAIN_____


CITY           SKY/WX    TMP DP  RH WIND       PRES   REMARKS
COLCHESTER RF*   N/A     54  43  66 S32         N/A
DIAMOND ISL*     N/A     50  39  66 S17         N/A

$$

NYZ007-026>031-035-052-083-200500-
_____NORTHERN NEW YORK_____


CITY           SKY/WX    TMP DP  RH WIND       PRES   REMARKS
PLATTSBURGH    PTCLDY    40  36  86 SW5       30.23S
SARANAC LAKE   CLEAR     30  28  92 CALM      30.20S
MASSENA        CLEAR     37  37 100 CALM      30.17F
OGDENSBURG*    CLEAR     43  41  93 CALM      30.15F
POTSDAM*       CLEAR     52  43  71 S12G17    30.15F
WATERTOWN      CLEAR     57  41  55 S10       30.14F
FT DRUM        CLEAR     49  38  66 SE14      30.15F
ALBANY         PTCLDY    52  40  63 S13       30.31F
GLENS FALLS    PTCLDY    39  36  89 SW3       30.30F

$$
NHZ002-005-011-200500-
_____NEW HAMPSHIRE_____


CITY           SKY/WX    TMP DP  RH WIND       PRES   REMARKS
LEBANON        CLEAR     36  32  85 NE7       30.34F
KEENE          CLEAR     37  30  75 CALM      30.38F
MT WASHINGTON  PTCLDY    34  30  86 W36G43      N/A
PLYMOUTH       FAIR      33  33 100 CALM      30.38F
WHITEFIELD     CLEAR     31  27  85 CALM      30.33R

$$

_____REGIONAL QUEBEC LOCATIONS_____


CITY           SKY/WX    TMP DP  RH WIND       PRES   REMARKS
MONTREAL       CLEAR     48  37  66 S10       30.19F
QUEBEC CITY    MOCLDY    41  34  75 N3        30.24F
SHERBROOKE     CLEAR     34  32  93 CALM      30.26F

_____REGIONAL ONTARIO LOCATIONS_____


CITY           SKY/WX    TMP DP  RH WIND       PRES   REMARKS
OTTAWA         MOCLDY    43  37  81 SE5       30.14F

______KEY______
VSB  - VISIBILITY IN MILES
WCI  - WIND CHILL INDEX
HX   - HEAT INDEX
$$
NNNN



USA.gov is the U.S. government's official web portal to all federal, state and local government web resources and services.